Location: Daouli
(14.8671°N, 3.2030°W)
Time: 01:33:03
(UTC+00:00)

SL-08 ROCKET BODY - Pass Details

Date: 29 October 2020
Orbit: 897 x 962 km, 82.9° (Epoch: 02 December)

Event Time Altitude Azimuth Distance (km) Brightness Sun altitude
Rises 18:44:41 0° 359° (N) 3,625 7.4 -14.9°
Reaches altitude 10° 18:47:10 10° 1° (N) 2,684 6.7 -15.5°
Maximum altitude 18:53:19 74° 86° (E) 1,000 4.4 -16.9°
Drops below altitude 10° 18:59:28 10° 171° (S) 2,688 6.8 -18.4°
Sets 19:01:58 0° 172° (S) 3,630 7.5 -19.0°
